Hourly Data Report for October 18, 2016

All times are specified in Local Standard Time (LST). Add 1 hour to adjust for Daylight Saving Time where and when it is observed.

ST LEONARD CS
NEW BRUNSWICK

47°09'28.050" N
67°49'55.014" W
245.00 m
810I001
71019
WIY

Download Data

Hourly Data (October 2016)
Hourly Data Report for October 18, 2016
Temp Definition
°C
Dew Point Temp Definition
°C
Rel Hum Definition
%
Wind Dir Definition
10's deg

Wind Spd Definition
km/h
Visibility Definition
km
Stn Press Definition
kPa
Hmdx Definition


Wind Chill Definition


Weather Definition


TIME
00:00 1.1 0.0 93 19 2   98.56     LegendNANA
01:00 2.4 1.3 92 29 4   98.60     LegendNANA
02:00 2.4 1.9 96 30 6   98.69     LegendNANA
03:00 0.8 0.3 96 35 6   98.68     LegendNANA
04:00 1.1 0.8 98 4 7   98.64     LegendNANA
05:00 -0.8 -1.2 97 6 5   98.68   -2 LegendNANA
06:00 -1.8 -2.1 98 8 7   98.72   -4 LegendNANA
07:00 -1.9 -2.1 99 7 6   98.82   -4 LegendNANA
08:00 0.9 0.4 97 7 4   98.85     LegendNANA
09:00 4.1 1.8 85 8 10   98.80     LegendNANA
10:00 6.5 2.5 75 12 16   98.73     LegendNANA
11:00 8.2 3.5 72 13 20   98.68     LegendNANA
12:00 8.4 3.7 72 13 17   98.60     LegendNANA
13:00 8.5 5.3 80 13 14   98.51     LegendNANA
14:00 7.7 5.6 86 14 24   98.33     LegendNANA
15:00 7.5 6.0 90 14 15   98.32     LegendNANA
16:00 7.4 6.2 92 14 20   98.20     LegendNANA
17:00 7.6 6.2 91 13 21   98.04     LegendNANA
18:00 8.1 6.3 88 14 26   97.81     LegendNANA
19:00 9.3 6.2 81 16 29   97.73     LegendNANA
20:00 9.2 6.4 83 17 30   97.63     LegendNANA
21:00 9.5 7.6 88 17 27   97.52     LegendNANA
22:00 9.8 9.1 96 16 25   97.36     LegendNANA
23:00 11.4 10.9 97 18 26   97.29     LegendNANA

Notes on Data Quality.

Legend

  • E = Estimated
  • M = Missing
  • NA = Not Available
  • ‡ = Partner data that is not subject to review by the National Climate Archives
Date modified: